Fort Myers Airport, FL

3:44 AM EST on February 25, 2018 (GMT -0500)
Southwest Florida International

Weather History for KRSW - November, 2012

Change the Weather History Date:

Friday, November 9, 2012

  Actual Average Record
Temperature  
Mean Temperature 62 °F -  
Max Temperature 75 °F 82 °F 89 °F (1975)
Min Temperature 50 °F 63 °F 45 °F (1951)
Degree Days  
Heating Degree Days 2    
Growing Degree Days 12 (Base 50)    
Moisture  
Dew Point 46 °F    
Average Humidity 60    
Maximum Humidity 80    
Minimum Humidity 29    
Precipitation  
Precipitation 0.00 in - - ()
Sea Level Pressure  
Sea Level Pressure 30.18 in    
Wind  
Wind Speed 6 mph (NE)    
Max Wind Speed 17 mph    
Max Gust Speed 23 mph    
Visibility 10 miles    
Events      
Averages and records for this station are not official NWS values.
T = Trace of Precipitation, MM = Missing Value Source: NWS Daily Summary

Daily Weather History Graph

Daily Weather History Graph

Search for Another Location

Airport or City:

Trip Planner

Search our weather history database for the weather conditions in past years. The results will help you decide how hot, cold, wet, or windy it might be!

Date:

Astronomy

Nov. 09, 2012 Rise Set
Actual Time 6:42 AM EST 5:39 PM EST
Civil Twilight 6:17 AM EST 6:03 PM EST
Nautical Twilight 5:50 AM EST 6:31 PM EST
Astronomical Twilight 5:22 AM EST 6:58 PM EST
Moon 2:05 AM EST (11/9) 2:29 PM EST (11/9)
Length of Visible Light 11h 45m
Length of Day
10h 57m
Waning Crescent, 23% of the Moon is Illuminated
Nov 9
Waning Crescent
Nov 13
New
Nov 20
First Quarter
Nov 28
Full
Dec 6
Last Quarter

Hourly Weather History & Observations

Time (EST) Temp. Dew Point Humidity Pressure Visibility Wind Dir Wind Speed Gust Speed Precip Events Conditions
12:53 AM 51.1 °F 43.0 °F 74% 30.16 in 10.0 mi North 3.5 mph - N/A   Clear
1:53 AM 50.0 °F 44.1 °F 80% 30.15 in 10.0 mi North 4.6 mph - N/A   Clear
2:53 AM 51.1 °F 43.0 °F 74% 30.14 in 10.0 mi NNE 6.9 mph - N/A   Clear
3:53 AM 50.0 °F 43.0 °F 77% 30.14 in 10.0 mi NNE 5.8 mph - N/A   Clear
4:53 AM 50.0 °F 42.1 °F 74% 30.15 in 10.0 mi North 5.8 mph - N/A   Clear
5:53 AM 50.0 °F 43.0 °F 77% 30.17 in 10.0 mi NNE 5.8 mph - N/A   Clear
6:53 AM 50.0 °F 42.1 °F 74% 30.19 in 10.0 mi North 5.8 mph - N/A   Clear
7:53 AM 54.0 °F 42.1 °F 64% 30.21 in 10.0 mi NNE 8.1 mph - N/A   Clear
8:53 AM 60.1 °F 45.0 °F 57% 30.22 in 10.0 mi NE 10.4 mph - N/A   Clear
9:53 AM 66.0 °F 46.9 °F 50% 30.23 in 10.0 mi NE 10.4 mph - N/A   Clear
10:53 AM 70.0 °F 48.0 °F 46% 30.23 in 10.0 mi NE 4.6 mph - N/A   Clear
11:53 AM 73.0 °F 44.1 °F 35% 30.21 in 10.0 mi NNE 9.2 mph - N/A   Clear
12:53 PM 73.9 °F 44.1 °F 34% 30.18 in 10.0 mi ENE 4.6 mph - N/A   Clear
1:53 PM 75.9 °F 41.0 °F 29% 30.16 in 10.0 mi NE 6.9 mph - N/A   Clear
2:53 PM 75.9 °F 44.1 °F 32% 30.15 in 10.0 mi ENE 10.4 mph - N/A   Clear
3:53 PM 75.0 °F 46.0 °F 36% 30.14 in 10.0 mi East 17.3 mph 23.0 mph N/A   Partly Cloudy
4:53 PM 73.0 °F 48.0 °F 41% 30.14 in 10.0 mi ENE 10.4 mph - N/A   Clear
5:53 PM 68.0 °F 50.0 °F 52% 30.16 in 10.0 mi ENE 9.2 mph - N/A   Clear
6:53 PM 64.0 °F 51.1 °F 63% 30.17 in 10.0 mi East 5.8 mph - N/A   Clear
7:53 PM 63.0 °F 53.1 °F 70% 30.19 in 10.0 mi ENE 5.8 mph - N/A   Clear
8:53 PM 61.0 °F 53.1 °F 75% 30.21 in 10.0 mi ENE 4.6 mph - N/A   Clear
9:53 PM 60.1 °F 52.0 °F 75% 30.22 in 10.0 mi NE 4.6 mph - N/A   Clear
10:53 PM 60.1 °F 52.0 °F 75% 30.22 in 10.0 mi NE 6.9 mph - N/A   Mostly Cloudy
11:53 PM 59.0 °F 51.1 °F 75% 30.22 in 10.0 mi ENE 5.8 mph - N/A   Mostly Cloudy